WX4ET Weather Reports


time (UTC)temp
C
wind
direction
speed
KPH
gust
KPH
rain 1hr
cm
rain 24hr
cm
rain mn
cm
humidity
%
barometer
mb
20260504213938 25 234 1.6 3.2 0.00 0.05 0.05 50 1006.9
20260504213433 25 260 0.0 1.6 0.00 0.05 0.05 46 1007.2
20260504212931 25 266 4.8 8.0 0.00 0.05 0.05 48 1007.3
20260504212427 25 324 4.8 8.0 0.00 0.05 0.05 47 1007.2
20260504211925 25 251 1.6 1.6 0.00 0.05 0.05 47 1007.3
20260504211421 25 179 1.6 1.6 0.00 0.05 0.05 49 1007.3
20260504210918 25 101 0.0 0.0 0.00 0.05 0.05 47 1007.3
20260504210415 25 193 1.6 1.6 0.00 0.05 0.05 48 1007.6
20260504205912 26 268 1.6 1.6 0.00 0.05 0.05 50 1007.5
20260504205410 25 108 0.0 0.0 0.00 0.05 0.05 47 1007.4
20260504204908 25 252 1.6 1.6 0.00 0.05 0.05 47 1007.7
20260504204406 25 202 3.2 3.2 0.00 0.05 0.05 49 1007.9
20260504203905 24 272 3.2 3.2 0.00 0.05 0.05 50 1008.0
20260504203402 24 213 6.4 8.0 0.00 0.05 0.05 49 1007.9
20260504202857 25 288 8.0 11.3 0.00 0.05 0.05 51 1008.0
20260504202355 25 94 1.6 3.2 0.00 0.05 0.05 49 1008.0
20260504201851 25 262 6.4 9.7 0.00 0.05 0.05 49 1008.1
20260504201349 25 209 3.2 4.8 0.00 0.05 0.05 48 1008.1
20260504200846 24 27 0.0 1.6 0.00 0.05 0.05 49 1008.1
20260504200343 23 355 1.6 3.2 0.00 0.05 0.05 50 1008.3
20260504195839 24 279 6.4 9.7 0.00 0.05 0.05 51 1008.3
20260504195334 24 208 4.8 4.8 0.00 0.05 0.05 52 1008.5
20260504194832 23 315 4.8 4.8 0.00 0.05 0.05 51 1008.8
20260504194328 24 24 4.8 4.8 0.00 0.05 0.05 50 1008.8
20260504193824 24 249 4.8 4.8 0.00 0.05 0.05 51 1008.8
20260504193321 24 132 0.0 1.6 0.00 0.05 0.05 47 1008.8
20260504192820 23 218 4.8 4.8 0.00 0.05 0.05 53 1009.0
20260504192318 24 175 0.0 0.0 0.00 0.05 0.05 53 1009.1
20260504191816 24 169 1.6 3.2 0.00 0.05 0.05 55 1009.2
20260504191313 25 191 3.2 3.2 0.00 0.05 0.05 50 1009.1
20260504190808 24 178 1.6 1.6 0.00 0.05 0.05 52 1009.2
20260504190305 23 155 1.6 1.6 0.00 0.05 0.05 53 1009.4
20260504185801 23 216 3.2 3.2 0.00 0.05 0.05 53 1009.4
20260504185258 22 291 6.4 8.0 0.00 0.05 0.05 52 1009.5
20260504184754 22 348 4.8 4.8 0.00 0.05 0.05 52 1009.5
20260504184250 22 189 1.6 1.6 0.00 0.05 0.05 53 1009.8
20260504183746 22 329 3.2 4.8 0.00 0.05 0.05 52 1009.7
20260504183243 21 358 0.0 3.2 0.00 0.05 0.05 53 1009.8
20260504182741 22 356 4.8 4.8 0.00 0.05 0.05 52 1009.8
20260504182238 21 105 1.6 3.2 0.00 0.05 0.05 50 1009.8
20260504181736 21 343 6.4 8.0 0.00 0.05 0.05 52 1009.9
20260504181233 21 283 3.2 3.2 0.00 0.05 0.05 53 1010.1
20260504180732 21 244 3.2 4.8 0.00 0.05 0.05 55 1010.0
20260504180231 21 324 4.8 4.8 0.00 0.05 0.05 52 1010.1
20260504175728 21 302 6.4 8.0 0.00 0.05 0.05 55 1010.4
20260504175224 20 27 3.2 3.2 0.00 0.05 0.05 54 1010.4
20260504174723 21 341 1.6 3.2 0.00 0.05 0.05 53 1010.3
20260504174220 21 271 4.8 4.8 0.00 0.05 0.05 56 1010.4
20260504173716 21 63 1.6 1.6 0.00 0.05 0.05 51 1010.5
20260504173213 20 191 1.6 3.2 0.00 0.05 0.05 53 1010.6
20260504172710 19 214 4.8 4.8 0.00 0.05 0.05 54 1010.5
20260504172206 20 286 3.2 3.2 0.00 0.05 0.05 56 1010.6
20260504171703 20 283 3.2 3.2 0.00 0.05 0.05 55 1010.8
20260504171200 20 280 4.8 4.8 0.00 0.05 0.05 53 1011.0
20260504170656 20 133 0.0 0.0 0.00 0.05 0.05 58 1011.1
20260504170154 19 305 1.6 3.2 0.00 0.05 0.05 57 1011.4
20260504160112 16 82 3.2 3.2 0.00 0.05 0.05 62 1012.6
20260504151004 11 139 0.0 0.0 0.00 0.05 0.05 92 1012.9
20260504150502 11 106 0.0 0.0 0.00 0.05 0.05 93 1013.1
20260504141235 12 233 1.6 1.6 0.00 0.00 0.00 70 1014.0
20260504140731 13 203 3.2 3.2 0.00 0.00 0.00 71 1014.4
20260504140227 12 262 3.2 3.2 0.00 0.00 0.00 72 1014.3
20260504130656 10 122 0.0 0.0 0.00 0.00 0.00 78 1013.8
20260504130152 10 153 1.6 1.6 0.00 0.00 0.00 77 1013.5
20260504120116 8 249 0.0 0.0 0.00 0.00 0.00 87 1012.5
20260504110543 5 119 0.0 0.0 0.00 0.00 0.00 95 1012.3
20260504100505 5 104 0.0 0.0 0.00 0.00 0.00 94 1012.2
20260504081858 5 113 0.0 0.0 0.00 0.00 0.00 92 1012.7
20260504081355 5 121 0.0 0.0 0.00 0.00 0.00 92 1012.4
20260504080850 5 107 0.0 0.0 0.00 0.00 0.00 92 1012.5
20260504080348 5 104 0.0 0.0 0.00 0.00 0.00 93 1012.4
20260504070315 5 127 0.0 0.0 0.00 0.00 0.00 93 1012.4
20260504060236 6 88 0.0 0.0 0.00 0.00 0.00 89 1012.8
20260504050704 6 98 0.0 0.0 0.00 0.00 0.00 89 1012.5
20260504050200 6 98 0.0 0.0 0.00 0.00 0.00 88 1012.5
20260504045657 6 98 0.0 0.0 0.00 0.00 0.00 88 1012.6
20260504045152 6 98 0.0 0.0 0.00 0.00 0.00 87 1012.5
20260504044650 6 98 0.0 0.0 0.00 0.00 0.00 87 1012.4
20260504044147 6 98 0.0 0.0 0.00 0.00 0.00 87 1012.4
20260504043644 7 98 0.0 0.0 0.00 0.00 0.00 87 1012.4
20260504043141 7 98 0.0 0.0 0.00 0.00 0.00 86 1012.4
20260504042639 7 98 0.0 0.0 0.00 0.00 0.00 86 1012.4
20260504042135 7 98 0.0 0.0 0.00 0.00 0.00 86 1012.4
20260504041631 7 98 0.0 0.0 0.00 0.00 0.00 85 1012.3
20260504041127 7 108 0.0 0.0 0.00 0.00 0.00 84 1012.2
20260504040624 7 102 0.0 0.0 0.00 0.00 0.00 84 1012.4
20260504040121 7 98 0.0 0.0 0.00 0.00 0.00 82 1012.2
20260504035618 7 104 0.0 0.0 0.00 0.00 0.00 82 1012.1
20260504035114 7 101 0.0 0.0 0.00 0.00 0.00 82 1012.1
20260504034612 7 107 0.0 0.0 0.00 0.00 0.00 83 1012.3
20260504034109 8 107 0.0 0.0 0.00 0.00 0.00 82 1012.2
20260504033607 8 107 0.0 0.0 0.00 0.00 0.00 81 1012.3
20260504033104 8 107 0.0 0.0 0.00 0.00 0.00 81 1012.4
20260504032601 8 107 0.0 0.0 0.00 0.00 0.00 79 1012.0
20260504032058 8 107 0.0 0.0 0.00 0.00 0.00 79 1012.0
20260504031555 8 109 0.0 0.0 0.00 0.00 0.00 80 1011.9
20260504031051 8 101 0.0 0.0 0.00 0.00 0.00 79 1012.2
20260504030548 8 100 0.0 0.0 0.00 0.00 0.00 78 1012.2
20260504030044 8 100 0.0 0.0 0.00 0.00 0.00 78 1012.0
20260504025542 8 116 0.0 0.0 0.00 0.00 0.00 78 1012.0
20260504025038 8 117 0.0 0.0 0.00 0.00 0.00 79 1012.0
20260504024535 8 117 0.0 0.0 0.00 0.00 0.00 77 1012.0
20260504024032 8 117 0.0 0.0 0.00 0.00 0.00 77 1012.1
20260504023529 9 117 0.0 0.0 0.00 0.00 0.00 76 1012.1
20260504023025 9 117 0.0 0.0 0.00 0.00 0.00 75 1012.0
20260504022520 9 116 0.0 0.0 0.00 0.00 0.00 75 1012.1
20260504022017 10 115 0.0 0.0 0.00 0.00 0.00 73 1011.8
20260504021515 10 107 0.0 0.0 0.00 0.00 0.00 73 1011.6
20260504021012 10 106 0.0 0.0 0.00 0.00 0.00 72 1011.6
20260504020508 10 117 0.0 0.0 0.00 0.00 0.00 73 1011.6
20260504020005 10 103 0.0 0.0 0.00 0.00 0.00 73 1011.6
20260504015501 10 98 0.0 0.0 0.00 0.00 0.00 72 1011.7
20260504014957 10 98 0.0 0.0 0.00 0.00 0.00 71 1011.7
20260504014453 11 98 0.0 0.0 0.00 0.00 0.00 68 1011.6
20260504013950 11 94 0.0 0.0 0.00 0.00 0.00 68 1011.7
20260504013449 11 276 0.0 0.0 0.00 0.00 0.00 69 1011.7
20260504012944 11 278 0.0 0.0 0.00 0.00 0.00 65 1011.6
20260504012443 11 278 0.0 0.0 0.00 0.00 0.00 64 1011.5
20260504011940 11 278 0.0 0.0 0.00 0.00 0.00 64 1011.7
20260504011436 12 278 0.0 0.0 0.00 0.00 0.00 63 1011.7
20260504010932 12 278 0.0 0.0 0.00 0.00 0.00 62 1011.6
20260504010429 12 278 0.0 0.0 0.00 0.00 0.00 60 1011.7
20260504005925 13 278 0.0 0.0 0.00 0.00 0.00 58 1011.6
20260504005422 14 280 0.0 0.0 0.00 0.00 0.00 64 1011.5
20260504004919 15 299 1.6 1.6 0.00 0.00 0.00 51 1011.5
20260504004417 15 261 1.6 1.6 0.00 0.00 0.00 52 1011.2
20260504003914 15 261 0.0 0.0 0.00 0.00 0.00 52 1011.2
20260504003410 15 305 1.6 3.2 0.00 0.00 0.00 51 1011.3
20260504002907 15 247 3.2 3.2 0.00 0.00 0.00 49 1011.3
20260504002404 14 235 0.0 0.0 0.00 0.00 0.00 53 1011.2
20260504001901 14 215 0.0 0.0 0.00 0.00 0.00 51 1011.0
20260504001359 15 218 0.0 0.0 0.00 0.00 0.00 55 1010.8
20260504000855 15 250 0.0 0.0 0.00 0.00 0.00 50 1011.0
20260504000354 15 77 0.0 3.2 0.00 0.00 0.00 49 1011.1
20260503235849 15 159 0.0 0.0 0.00 0.00 0.00 52 1011.1
20260503235347 16 192 0.0 0.0 0.00 0.00 0.00 47 1010.9
20260503234844 16 278 1.6 1.6 0.00 0.00 0.00 46 1011.1
20260503234342 17 217 1.6 1.6 0.00 0.00 0.00 45 1011.2
20260503233840 17 232 1.6 3.2 0.00 0.00 0.00 45 1011.0
20260503233336 17 338 3.2 3.2 0.00 0.00 0.00 42 1011.1
20260503232832 17 173 1.6 3.2 0.00 0.00 0.00 43 1011.0
20260503232330 17 100 1.6 3.2 0.00 0.00 0.00 43 1011.2
20260503231827 17 271 1.6 1.6 0.00 0.00 0.00 42 1011.2
20260503231324 18 207 0.0 0.0 0.00 0.00 0.00 41 1011.3
20260503230820 18 284 3.2 3.2 0.00 0.00 0.00 41 1011.3
20260503230317 18 221 3.2 3.2 0.00 0.00 0.00 40 1011.2
20260503225815 18 291 3.2 4.8 0.00 0.00 0.00 40 1011.2
20260503225310 18 179 0.0 0.0 0.00 0.00 0.00 43 1011.5
20260503224807 18 314 4.8 8.0 0.00 0.00 0.00 38 1011.5
20260503224305 18 303 1.6 3.2 0.00 0.00 0.00 39 1011.6
20260503223802 18 308 3.2 3.2 0.00 0.00 0.00 38 1011.5
20260503223300 18 234 0.0 1.6 0.00 0.00 0.00 38 1011.2
20260503222755 18 193 1.6 3.2 0.00 0.00 0.00 39 1011.5
20260503222254 18 126 1.6 1.6 0.00 0.00 0.00 37 1011.4
20260503221752 18 0 4.8 4.8 0.00 0.00 0.00 37 1011.6
20260503221249 18 259 4.8 8.0 0.00 0.00 0.00 37 1011.7
20260503220746 18 291 6.4 8.0 0.00 0.00 0.00 37 1011.8
20260503220243 18 199 3.2 4.8 0.00 0.00 0.00 38 1011.6
20260503215739 18 289 6.4 8.0 0.00 0.00 0.00 38 1011.8
20260503215236 18 284 4.8 4.8 0.00 0.00 0.00 39 1011.6
20260503214735 18 299 3.2 4.8 0.00 0.00 0.00 37 1011.8